QPF
0.00 0.00 0.00 0.00 0.00 0.00 0.00 0.00 0.00 0.00 0.00 0.00 0.00 0.00 0.00 0.00 0.00 0.00 0.00 0.01 0.05 0.03 0.00 0.00 0.00 0.00 0.00 0.00 0.00 0.00 0.00 0.00 0.00 0.00 0.00 0.00 0.00 0.00 0.00 0.00 0.00 0.00 0.00
0.00 0.00 0.00 0.00 0.00 0.00 0.00 0.00 0.00 0.00 0.00 0.00 0.00 0.00 0.00 0.00 0.00 0.00 0.01 0.04 0.02 0.00 0.00 0.00 0.00 0.00 0.00 0.00 0.00 0.00 0.00 0.00 0.00 0.00 0.00 0.00 0.00 0.00 0.00 0.00 0.00 0.00 0.00
0.00 0.00 0.00 0.00 0.00 0.00 0.00 0.00 0.00 0.00 0.00 0.00 0.00 0.00 0.00 0.00 0.00 0.01 0.03 0.01 0.00 0.00 0.00 0.00 0.00 0.00 0.00 0.00 0.00 0.00 0.00 0.00 0.00 0.00 0.00 0.00 0.00 0.00 0.00 0.00 0.00 0.00 0.00
0.00 0.00 0.00 0.00 0.00 0.00 0.00 0.00 0.00 0.00 0.00 0.00 0.00 0.00 0.00 0.00 0.00 0.02 0.00 0.00 0.00 0.00 0.00 0.00 0.00 0.00 0.00 0.00 0.00 0.00 0.00 0.00 0.00 0.00 0.00 0.00 0.00 0.00 0.00 0.00 0.00 0.00 0.00
0.00 0.00 0.00 0.00 0.00 0.00 0.00 0.00 0.00 0.00 0.00 0.00 0.00 0.00 0.00 0.00 0.00 0.02 0.00 0.00 0.00 0.00 0.00 0.00 0.00 0.00 0.00 0.00 0.00 0.00 0.00 0.00 0.00 0.00 0.00 0.00 0.00 0.00 0.00 0.00 0.00 0.00 0.00
0.00 0.00 0.00 0.00 0.00 0.00 0.00 0.00 0.00 0.00 0.00 0.00 0.00 0.00 0.00 0.00 0.00 0.00 0.00 0.00 0.00 0.00 0.00 0.00 0.00 0.00 0.00 0.00 0.00 0.00 0.00 0.00 0.00 0.00 0.00 0.00 0.00 0.00 0.00 0.00 0.00 0.00 0.00
0.00 0.00 0.00 0.00 0.00 0.00 0.00 0.00 0.00 0.00 0.00 0.00 0.00 0.00 0.00 0.00 0.00 0.00 0.00 0.00 0.00 0.00 0.00 0.00 0.00 0.00 0.00 0.00 0.00 0.00 0.00 0.00 0.00 0.00 0.00 0.00 0.00 0.00 0.00 0.00 0.00 0.00 0.00
0.00 0.00 0.00 0.00 0.00 0.00 0.00 0.00 0.00 0.00 0.00 0.00 0.00 0.00 0.00 0.00 0.00 0.00 0.00 0.00 0.00 0.00 0.00 0.00 0.00 0.00 0.00 0.00 0.00 0.00 0.00 0.00 0.00 0.00 0.00 0.00 0.00 0.00 0.00 0.00 0.00 0.00 0.00
0.00 0.00 0.00 0.00 0.00 0.00 0.00 0.00 0.00 0.00 0.00 0.00 0.00 0.00 0.00 0.00 0.00 0.00 0.00 0.00 0.00 0.00 0.00 0.00 0.00 0.00 0.00 0.00 0.00 0.00 0.00 0.00 0.00 0.00 0.00 0.00 0.00 0.00 0.00 0.00 0.00 0.00 0.00
0.00 0.00 0.00 0.00 0.00 0.00 0.00 0.00 0.00 0.00 0.00 0.00 0.00 0.00 0.00 0.00 0.00 0.00 0.00 0.00 0.00 0.00 0.00 0.00 0.00 0.00 0.00 0.00 0.00 0.00 0.00 0.00 0.00 0.00 0.00 0.00 0.00 0.00 0.00 0.00 0.00 0.00 0.00
0.00 0.00 0.00 0.00 0.00 0.00 0.00 0.00 0.00 0.00 0.00 0.00 0.00 0.00 0.00 0.00 0.00 0.00 0.00 0.00 0.00 0.00 0.00 0.00 0.00 0.00 0.00 0.00 0.00 0.00 0.00 0.00 0.00 0.00 0.00 0.00 0.00 0.00 0.00 0.00 0.00 0.00 0.00
0.00 0.00 0.00 0.00 0.00 0.00 0.00 0.00 0.00 0.00 0.00 0.00 0.00 0.00 0.00 0.00 0.00 0.00 0.00 0.00 0.00 0.00 0.00 0.00 0.00 0.00 0.00 0.00 0.00 0.00 0.00 0.00 0.00 0.00 0.00 0.00 0.00 0.00 0.00 0.00 0.00 0.00 0.00
0.00 0.00 0.00 0.00 0.00 0.00 0.00 0.00 0.00 0.00 0.00 0.00 0.00 0.00 0.00 0.00 0.00 0.00 0.00 0.00 0.00 0.00 0.00 0.00 0.00 0.00 0.00 0.00 0.00 0.00 0.00 0.00 0.00 0.00 0.00 0.00 0.00 0.00 0.00 0.00 0.00 0.00 0.00
0.00 0.00 0.00 0.00 0.00 0.00 0.00 0.00 0.00 0.00 0.00 0.00 0.00 0.00 0.00 0.00 0.00 0.00 0.00 0.00 0.00 0.00 0.00 0.00 0.00 0.00 0.00 0.00 0.00 0.00 0.00 0.00 0.00 0.00 0.00 0.00 0.00 0.00 0.00 0.00 0.00 0.00 0.00
0.00 0.00 0.00 0.00 0.00 0.00 0.00 0.00 0.00 0.00 0.00 0.00 0.00 0.00 0.00 0.00 0.00 0.00 0.00 0.00 0.00 0.00 0.00 0.00 0.00 0.00 0.00 0.00 0.00 0.00 0.00 0.00 0.00 0.00 0.00 0.00 0.00 0.00 0.00 0.00 0.00 0.00 0.00
0.00 0.00 0.00 0.00 0.00 0.00 0.00 0.00 0.00 0.00 0.00 0.00 0.00 0.00 0.00 0.00 0.00 0.00 0.00 0.00 0.00 0.00 0.00 0.00 0.00 0.00 0.00 0.00 0.00 0.00 0.00 0.00 0.00 0.00 0.00 0.00 0.00 0.00 0.00 0.00 0.00 0.00 0.00
0.00 0.00 0.00 0.00 0.00 0.00 0.00 0.00 0.00 0.00 0.00 0.00 0.00 0.00 0.00 0.00 0.00 0.00 0.00 0.00 0.00 0.00 0.00 0.00 0.00 0.00 0.00 0.00 0.00 0.00 0.00 0.00 0.00 0.00 0.00 0.00 0.00 0.00 0.00 0.00 0.00 0.00 0.00
0.00 0.00 0.00 0.00 0.00 0.00 0.00 0.00 0.00 0.00 0.00 0.00 0.00 0.00 0.01 0.00 0.00 0.00 0.00 0.00 0.00 0.00 0.00 0.00 0.00 0.00 0.00 0.00 0.00 0.00 0.00 0.00 0.00 0.00 0.00 0.00 0.00 0.00 0.00 0.00 0.00 0.00 0.00
0.01 0.00 0.00 0.00 0.00 0.00 0.00 0.00 0.00 0.00 0.00 0.00 0.00 0.00 0.01 0.01 0.00 0.00 0.00 0.00 0.00 0.00 0.00 0.00 0.00 0.00 0.00 0.00 0.00 0.00 0.00 0.00 0.00 0.00 0.00 0.00 0.00 0.00 0.00 0.00 0.00 0.00 0.00
0.01 0.00 0.00 0.00 0.00 0.00 0.00 0.00 0.00 0.00 0.00 0.00 0.00 0.00 0.00 0.00 0.00 0.00 0.00 0.00 0.00 0.00 0.00 0.00 0.00 0.00 0.00 0.00 0.00 0.00 0.00 0.00 0.00 0.00 0.00 0.00 0.00 0.00 0.00 0.00 0.00 0.00 0.00
0.05 0.03 0.00 0.00 0.00 0.00 0.00 0.00 0.00 0.00 0.00 0.00 0.00 0.00 0.00 0.00 0.01 0.01 0.02 0.00 0.00 0.00 0.00 0.00 0.00 0.00 0.00 0.00 0.00 0.00 0.00 0.00 0.00 0.00 0.00 0.00 0.00 0.00 0.00 0.00 0.00 0.00 0.00
0.07 0.05 0.01 0.01 0.01 0.00 0.00 0.00 0.00 0.00 0.00 0.00 0.00 0.00 0.00 0.00 0.02 0.02 0.03 0.01 0.00 0.00 0.00 0.00 0.00 0.00 0.00 0.00 0.00 0.00 0.00 0.00 0.00 0.00 0.00 0.00 0.00 0.00 0.00 0.00 0.00 0.00 0.00
0.04 0.03 0.02 0.00 0.00 0.00 0.00 0.00 0.00 0.00 0.00 0.00 0.00 0.01 0.02 0.01 0.01 0.05 0.04 0.01 0.00 0.00 0.00 0.00 0.00 0.00 0.00 0.00 0.00 0.00 0.00 0.00 0.00 0.00 0.00 0.00 0.00 0.00 0.00 0.00 0.00 0.00 0.00
0.01 0.00 0.00 0.00 0.00 0.00 0.00 0.01 0.00 0.00 0.00 0.00 0.02 0.01 0.01 0.01 0.01 0.04 0.08 0.04 0.00 0.00 0.00 0.00 0.00 0.00 0.00 0.00 0.00 0.00 0.00 0.00 0.00 0.00 0.00 0.00 0.00 0.00 0.00 0.00 0.00 0.00 0.00
0.00 0.00 0.00 0.00 0.00 0.00 0.00 0.00 0.01 0.00 0.00 0.00 0.01 0.01 0.00 0.00 0.03 0.07 0.08 0.05 0.04 0.01 0.00 0.00 0.00 0.00 0.00 0.00 0.00 0.00 0.00 0.00 0.00 0.00 0.00 0.00 0.00 0.00 0.00 0.00 0.00 0.00 0.00
0.00 0.00 0.00 0.00 0.00 0.00 0.00 0.00 0.00 0.00 0.00 0.00 0.00 0.00 0.00 0.00 0.01 0.03 0.01 0.05 0.02 0.01 0.00 0.00 0.00 0.00 0.00 0.00 0.00 0.00 0.00 0.00 0.00 0.00 0.00 0.00 0.00 0.00 0.00 0.00 0.00 0.00 0.00
MSLP
1010.55 1011.08 1011.72 1012.18 1012.67 1013.18 1013.45 1013.72 1013.93 1014.04 1014.17 1014.35 1014.50 1014.35 1014.25 1014.22 1014.28 1014.35 1014.32 1014.03 1014.52 1015.09 1015.55 1015.94 1016.16 1016.32 1015.95 1015.48 1015.38 1015.25 1015.20 1015.20 1014.86 1015.64 1015.98 1016.45 1016.66 1016.53 1016.54 1016.22 1015.62 1015.22 1015.76
1009.67 1010.33 1010.93 1011.54 1012.01 1012.43 1012.82 1013.16 1013.45 1013.65 1013.80 1014.03 1014.08 1014.10 1014.06 1014.06 1014.09 1014.02 1014.02 1014.28 1014.83 1015.18 1015.58 1015.72 1015.99 1016.25 1016.28 1016.34 1016.27 1016.55 1016.55 1016.41 1015.86 1016.22 1016.67 1016.28 1016.56 1016.55 1016.37 1015.83 1015.76 1015.65 1015.72
1008.81 1009.68 1010.38 1011.03 1011.46 1011.82 1012.16 1012.64 1012.96 1013.19 1013.42 1013.53 1013.68 1013.74 1013.79 1013.79 1013.84 1013.90 1014.28 1014.84 1014.96 1015.41 1015.48 1015.71 1016.26 1016.59 1016.80 1016.83 1016.75 1016.62 1016.67 1016.76 1016.59 1016.35 1016.23 1016.33 1016.48 1016.75 1016.26 1015.82 1015.64 1015.80 1015.98
1008.12 1008.96 1009.70 1010.27 1010.72 1011.12 1011.55 1012.04 1012.41 1012.71 1012.98 1013.10 1013.29 1013.38 1013.49 1013.52 1013.66 1014.08 1014.75 1015.07 1015.40 1015.36 1015.84 1016.14 1016.54 1016.97 1017.28 1017.49 1017.76 1017.67 1017.56 1016.81 1016.90 1016.58 1016.56 1016.61 1016.84 1016.88 1016.56 1015.86 1015.40 1016.07 1016.77
1007.55 1008.29 1008.93 1009.49 1010.04 1010.48 1010.86 1011.32 1011.78 1012.20 1012.44 1012.73 1012.84 1013.03 1013.21 1013.28 1013.21 1014.24 1014.79 1015.29 1015.33 1015.96 1016.34 1016.71 1017.14 1017.62 1018.07 1018.09 1017.83 1018.15 1017.89 1017.44 1017.22 1017.01 1017.06 1017.13 1017.37 1017.20 1016.91 1016.41 1015.85 1015.66 1016.30
1006.96 1007.63 1008.32 1008.91 1009.38 1009.84 1010.26 1010.70 1011.32 1011.76 1012.05 1012.30 1012.47 1012.74 1012.87 1012.84 1013.70 1014.61 1015.10 1015.41 1015.72 1016.31 1016.90 1017.59 1018.18 1018.50 1018.87 1018.92 1018.99 1019.20 1019.26 1018.66 1018.62 1018.36 1018.15 1018.24 1018.32 1018.20 1017.95 1017.16 1016.55 1016.29 1016.77
1006.35 1007.10 1007.79 1008.36 1008.82 1009.26 1009.73 1010.23 1010.75 1011.26 1011.57 1011.91 1012.18 1012.42 1012.73 1013.54 1014.25 1014.95 1015.29 1015.38 1015.96 1016.55 1017.12 1017.56 1017.66 1018.65 1018.96 1019.28 1019.57 1019.67 1019.80 1019.58 1019.59 1019.40 1019.31 1019.38 1019.17 1019.26 1018.98 1017.60 1016.92 1016.40 1017.10
1005.85 1006.43 1007.20 1007.90 1008.34 1008.84 1009.34 1009.76 1010.34 1010.79 1011.14 1011.50 1011.78 1012.19 1012.76 1014.23 1014.82 1015.31 1015.53 1015.75 1016.34 1016.81 1017.23 1017.67 1018.17 1018.66 1019.10 1019.17 1019.29 1019.45 1019.53 1019.90 1020.09 1019.77 1020.14 1020.41 1020.32 1020.05 1019.30 1017.79 1016.83 1016.47 1016.48
1005.24 1005.93 1006.49 1007.20 1007.86 1008.31 1008.83 1009.34 1009.90 1010.33 1010.77 1011.23 1011.52 1012.05 1013.29 1014.94 1015.28 1015.56 1015.56 1015.94 1016.55 1017.07 1017.66 1018.18 1018.53 1019.02 1019.73 1019.66 1019.58 1019.69 1019.71 1019.93 1020.68 1020.60 1020.58 1020.55 1020.52 1020.35 1019.67 1017.94 1017.00 1016.11 1016.16
1004.85 1005.23 1005.99 1006.72 1007.30 1007.77 1008.26 1008.85 1009.46 1009.95 1010.40 1010.59 1011.28 1012.16 1013.65 1014.79 1015.56 1015.69 1015.63 1015.84 1016.61 1017.07 1017.92 1018.74 1019.04 1019.46 1020.04 1020.11 1019.90 1019.80 1019.76 1019.94 1019.87 1019.86 1019.65 1019.65 1019.69 1020.00 1019.85 1019.27 1018.57 1017.63 1017.46
1004.62 1005.31 1005.85 1006.40 1006.90 1007.40 1007.94 1008.57 1009.15 1009.65 1009.93 1010.64 1011.44 1012.79 1013.66 1014.45 1015.61 1015.79 1015.67 1015.73 1016.20 1016.61 1017.48 1018.36 1019.24 1020.07 1020.43 1020.55 1020.47 1020.29 1020.25 1020.27 1020.07 1019.46 1019.28 1019.30 1019.32 1019.60 1019.94 1020.12 1020.25 1019.80 1019.54
1004.22 1004.97 1005.68 1006.22 1006.40 1006.99 1007.74 1008.37 1008.93 1009.40 1009.97 1010.80 1011.91 1012.89 1013.78 1014.78 1015.63 1016.08 1016.10 1016.00 1016.46 1016.54 1017.05 1017.84 1019.41 1020.39 1020.84 1021.04 1021.03 1021.23 1020.90 1020.03 1019.58 1019.31 1019.30 1019.36 1019.42 1019.74 1020.06 1020.38 1021.01 1021.18 1021.17
1004.09 1004.77 1005.40 1005.95 1006.11 1006.70 1007.40 1008.04 1008.55 1009.16 1009.63 1010.91 1011.65 1012.59 1013.67 1014.54 1015.73 1016.30 1016.59 1016.69 1016.94 1016.91 1017.28 1018.31 1019.63 1020.67 1021.20 1021.53 1021.43 1021.26 1021.28 1019.75 1019.49 1019.42 1019.60 1019.76 1019.90 1020.34 1019.82 1019.72 1020.30 1020.74 1021.21
1004.06 1004.61 1005.09 1005.59 1006.03 1006.42 1006.91 1007.57 1007.67 1008.32 1008.80 1009.87 1010.98 1012.08 1013.04 1013.73 1015.00 1015.99 1016.63 1017.19 1017.43 1017.72 1018.26 1019.19 1019.85 1020.34 1020.61 1020.88 1021.38 1021.00 1020.16 1019.88 1019.72 1019.83 1019.93 1020.04 1020.11 1020.07 1019.94 1019.85 1019.71 1019.91 1020.41
1004.31 1004.62 1004.85 1005.14 1005.63 1006.19 1006.27 1007.03 1007.32 1007.73 1008.12 1008.97 1009.99 1010.97 1011.71 1012.70 1013.87 1014.84 1015.49 1016.11 1016.73 1017.66 1018.23 1019.00 1019.21 1019.49 1019.90 1020.10 1020.05 1020.32 1020.34 1020.16 1020.13 1020.17 1020.16 1020.17 1020.16 1020.22 1020.30 1020.13 1019.88 1019.88 1020.02
1004.29 1004.37 1004.32 1004.38 1005.16 1005.39 1006.19 1007.54 1008.51 1008.74 1008.70 1009.33 1009.73 1010.04 1011.06 1011.82 1013.41 1014.82 1015.53 1016.09 1016.47 1017.17 1017.66 1017.93 1018.11 1018.58 1018.93 1019.18 1019.43 1019.74 1020.08 1020.23 1020.38 1020.52 1020.48 1020.44 1020.52 1020.38 1020.31 1020.46 1020.40 1020.26 1020.55
1004.15 1004.01 1003.91 1003.99 1004.39 1005.07 1006.07 1006.76 1007.89 1009.96 1010.01 1010.32 1010.71 1010.74 1011.38 1012.29 1013.38 1014.81 1015.38 1015.89 1016.66 1016.91 1016.46 1017.02 1017.49 1017.78 1018.02 1018.49 1018.77 1019.06 1019.53 1020.03 1020.58 1020.51 1020.58 1020.71 1020.82 1020.97 1020.54 1020.56 1020.64 1020.77 1021.02
1005.38 1005.16 1004.59 1004.61 1005.05 1005.52 1006.16 1006.62 1007.40 1008.71 1009.88 1011.03 1011.71 1012.00 1012.26 1013.12 1013.63 1014.50 1015.50 1016.19 1017.28 1016.52 1015.67 1016.04 1016.63 1017.13 1017.53 1018.04 1018.59 1018.97 1019.57 1020.45 1020.48 1020.59 1020.66 1020.75 1020.84 1020.94 1020.98 1020.94 1020.90 1020.98 1021.22
1006.54 1005.34 1004.99 1005.19 1005.47 1005.92 1006.56 1007.18 1007.49 1008.02 1008.82 1010.44 1011.96 1012.89 1013.77 1014.71 1014.53 1014.83 1015.06 1014.58 1015.22 1015.64 1015.05 1015.10 1015.81 1016.58 1017.18 1017.56 1018.27 1018.83 1019.47 1019.72 1020.14 1020.49 1020.66 1020.84 1020.94 1021.10 1021.48 1021.75 1021.96 1021.88 1021.88
1007.86 1007.26 1006.18 1005.61 1006.20 1006.34 1006.60 1007.16 1007.72 1008.20 1008.64 1009.32 1010.82 1011.84 1013.97 1014.94 1015.23 1015.74 1015.43 1014.16 1014.13 1014.22 1014.37 1014.62 1015.10 1015.84 1016.69 1017.43 1017.94 1018.66 1019.26 1019.79 1020.23 1020.37 1020.68 1020.82 1021.07 1021.22 1021.32 1021.38 1021.45 1021.70 1022.19
1008.67 1008.31 1007.47 1006.89 1006.69 1006.84 1007.17 1007.35 1007.76 1008.17 1008.62 1009.34 1010.15 1010.43 1011.69 1012.17 1012.75 1013.64 1013.99 1013.86 1013.35 1013.59 1013.79 1014.18 1014.75 1015.64 1015.68 1016.95 1017.70 1018.28 1018.75 1019.20 1019.58 1019.77 1020.43 1020.79 1021.03 1021.13 1021.42 1021.74 1021.92 1022.03 1022.19
1008.86 1009.72 1008.40 1008.02 1007.92 1007.85 1008.09 1008.01 1007.80 1007.85 1008.35 1008.86 1009.62 1010.79 1011.86 1011.99 1012.27 1012.79 1013.25 1012.83 1012.74 1013.15 1013.43 1014.12 1014.52 1015.38 1015.79 1015.75 1016.94 1017.61 1018.09 1018.53 1018.97 1019.43 1019.91 1020.45 1020.75 1021.15 1021.40 1021.77 1022.06 1022.32 1022.54
1011.47 1010.98 1010.22 1008.95 1008.47 1009.20 1009.12 1008.73 1008.70 1008.73 1008.74 1008.85 1008.97 1010.34 1011.56 1011.72 1011.94 1012.40 1012.61 1012.34 1011.81 1012.33 1012.88 1013.66 1014.17 1014.60 1015.80 1016.03 1016.37 1016.90 1017.19 1017.68 1018.38 1018.89 1019.40 1019.88 1020.36 1020.61 1021.09 1021.34 1021.85 1022.26 1022.40
1011.70 1012.72 1010.26 1008.61 1009.65 1010.39 1010.45 1009.79 1009.14 1009.18 1009.12 1009.15 1009.27 1009.82 1010.20 1010.82 1011.12 1011.53 1011.90 1012.01 1011.78 1011.96 1012.19 1012.82 1013.31 1013.76 1014.78 1015.81 1016.03 1016.35 1016.52 1017.13 1017.83 1018.43 1018.97 1019.31 1019.85 1020.53 1020.53 1020.96 1021.25 1021.82 1022.33
1013.64 1012.54 1011.04 1011.94 1012.21 1011.99 1011.66 1010.72 1010.26 1009.41 1009.24 1009.08 1009.14 1009.35 1009.69 1010.15 1010.83 1011.09 1011.64 1011.85 1011.82 1011.90 1011.69 1011.83 1012.12 1013.16 1014.16 1015.11 1015.36 1015.85 1016.14 1016.93 1017.40 1017.88 1018.66 1018.92 1019.14 1020.01 1020.15 1020.41 1020.77 1021.28 1021.79
1014.55 1012.74 1012.70 1013.16 1013.34 1013.25 1012.70 1012.07 1011.43 1010.68 1010.06 1009.21 1008.99 1009.03 1009.19 1009.64 1010.23 1010.56 1010.93 1011.32 1011.56 1011.81 1011.66 1011.53 1011.76 1012.32 1013.29 1014.05 1014.64 1015.30 1016.10 1016.85 1017.51 1017.94 1017.98 1018.32 1018.94 1019.47 1019.75 1020.01 1020.45 1020.68 1021.29
Thickness
5841 5840 5836 5833 5832 5830 5829 5827 5825 5824 5823 5820 5818 5818 5817 5814 5811 5806 5802 5800 5789 5779 5771 5760 5750 5741 5735 5731 5723 5712 5700 5688 5675 5660 5651 5640 5628 5619 5610 5604 5601 5597 5590
5847 5844 5840 5838 5837 5835 5833 5831 5830 5827 5827 5824 5823 5822 5820 5817 5813 5809 5803 5797 5787 5778 5769 5762 5751 5741 5731 5722 5711 5696 5685 5675 5667 5648 5640 5637 5625 5616 5609 5605 5597 5592 5588
5851 5846 5843 5840 5839 5838 5837 5834 5833 5831 5829 5830 5828 5825 5823 5820 5816 5811 5803 5793 5787 5778 5771 5762 5748 5737 5725 5716 5706 5695 5684 5672 5661 5651 5643 5636 5625 5614 5609 5605 5600 5593 5589
5855 5850 5845 5844 5843 5843 5842 5839 5836 5835 5833 5833 5831 5830 5827 5824 5818 5810 5799 5792 5784 5779 5769 5759 5747 5734 5722 5710 5698 5686 5677 5672 5659 5652 5642 5631 5621 5615 5610 5605 5603 5594 5586
5856 5852 5849 5849 5849 5848 5845 5843 5841 5838 5837 5836 5835 5832 5830 5827 5824 5809 5800 5790 5785 5773 5765 5754 5742 5729 5715 5707 5700 5685 5676 5668 5659 5650 5640 5631 5620 5614 5609 5607 5605 5603 5594
5858 5854 5854 5852 5852 5849 5848 5845 5842 5840 5839 5839 5837 5833 5831 5831 5818 5806 5798 5790 5783 5771 5758 5746 5733 5722 5711 5701 5690 5678 5666 5660 5649 5642 5635 5625 5616 5612 5605 5603 5603 5599 5591
5860 5859 5857 5854 5853 5851 5850 5847 5844 5841 5842 5840 5838 5836 5832 5825 5814 5804 5797 5792 5781 5770 5758 5747 5740 5724 5715 5703 5689 5678 5665 5656 5645 5639 5630 5621 5614 5607 5602 5604 5603 5604 5594
5860 5861 5859 5856 5853 5854 5850 5848 5845 5845 5843 5842 5840 5838 5833 5818 5810 5802 5796 5789 5778 5769 5758 5748 5737 5726 5715 5707 5697 5686 5675 5660 5648 5640 5628 5617 5609 5604 5604 5608 5610 5609 5605
5860 5859 5860 5859 5854 5855 5851 5849 5848 5847 5846 5843 5843 5839 5827 5811 5806 5801 5797 5788 5776 5767 5756 5746 5736 5726 5711 5705 5698 5687 5677 5664 5649 5641 5631 5622 5614 5606 5604 5610 5612 5616 5611
5859 5862 5862 5859 5857 5855 5855 5852 5852 5850 5848 5849 5843 5838 5824 5813 5803 5799 5798 5790 5775 5767 5755 5742 5734 5725 5712 5705 5700 5691 5682 5670 5659 5649 5644 5634 5624 5615 5608 5605 5605 5608 5606
5862 5859 5858 5857 5856 5856 5855 5854 5852 5850 5850 5846 5840 5830 5824 5816 5803 5798 5796 5793 5781 5771 5759 5747 5735 5720 5712 5706 5700 5694 5685 5675 5665 5661 5652 5643 5635 5624 5613 5605 5598 5597 5595
5863 5858 5853 5853 5857 5857 5853 5852 5851 5850 5846 5840 5831 5825 5820 5811 5801 5794 5792 5791 5781 5774 5764 5754 5736 5721 5713 5707 5701 5689 5686 5683 5678 5669 5658 5648 5642 5632 5623 5613 5601 5594 5586
5859 5854 5852 5852 5856 5856 5853 5851 5850 5849 5846 5834 5830 5821 5814 5810 5800 5790 5786 5783 5777 5773 5766 5750 5733 5721 5714 5706 5699 5694 5688 5693 5683 5673 5661 5652 5646 5637 5634 5627 5615 5605 5592
5853 5851 5851 5851 5851 5855 5857 5856 5858 5852 5849 5842 5832 5823 5817 5814 5803 5794 5787 5779 5771 5766 5753 5743 5734 5727 5720 5714 5704 5701 5702 5695 5687 5677 5666 5659 5651 5644 5639 5634 5628 5620 5609
5847 5846 5848 5852 5852 5853 5860 5859 5859 5857 5856 5846 5839 5832 5826 5818 5811 5803 5795 5787 5780 5767 5758 5745 5739 5732 5724 5717 5714 5707 5699 5694 5688 5680 5672 5664 5657 5650 5642 5639 5636 5630 5622
5841 5841 5848 5854 5853 5857 5855 5849 5839 5840 5844 5842 5841 5841 5832 5825 5809 5797 5791 5783 5776 5767 5761 5753 5745 5738 5730 5724 5716 5709 5702 5694 5689 5682 5675 5669 5660 5655 5649 5643 5638 5633 5625
5837 5841 5848 5853 5854 5853 5850 5848 5842 5828 5825 5824 5825 5829 5826 5817 5804 5792 5787 5779 5770 5765 5767 5759 5749 5743 5738 5730 5723 5716 5707 5699 5690 5687 5680 5672 5665 5657 5655 5649 5643 5636 5629
5824 5826 5839 5843 5844 5845 5843 5844 5842 5833 5826 5820 5811 5810 5809 5803 5799 5789 5780 5775 5762 5764 5770 5762 5755 5747 5741 5733 5725 5717 5708 5697 5692 5689 5683 5677 5671 5664 5658 5653 5649 5642 5635
5808 5824 5833 5835 5836 5835 5834 5832 5833 5832 5829 5817 5804 5797 5789 5780 5783 5780 5778 5784 5774 5768 5771 5767 5760 5750 5743 5738 5729 5720 5711 5705 5698 5691 5686 5680 5674 5669 5660 5653 5646 5641 5637
5787 5797 5814 5824 5822 5825 5826 5823 5821 5819 5819 5817 5805 5801 5782 5774 5774 5768 5771 5780 5777 5774 5772 5766 5762 5755 5746 5737 5731 5722 5713 5704 5697 5693 5687 5683 5677 5672 5667 5663 5658 5652 5642
5771 5778 5792 5804 5810 5813 5813 5814 5814 5812 5811 5807 5803 5803 5792 5791 5786 5778 5774 5774 5775 5772 5770 5765 5759 5753 5750 5738 5729 5723 5716 5710 5704 5699 5689 5684 5679 5675 5670 5665 5660 5655 5649
5759 5750 5776 5785 5790 5793 5794 5799 5805 5807 5805 5802 5797 5787 5776 5779 5779 5775 5770 5774 5773 5769 5766 5759 5753 5748 5745 5743 5731 5724 5719 5713 5708 5701 5694 5687 5682 5676 5672 5666 5661 5656 5651
5725 5734 5744 5763 5772 5769 5776 5783 5785 5787 5789 5790 5792 5781 5769 5769 5770 5765 5765 5768 5772 5767 5760 5753 5747 5746 5735 5733 5732 5725 5722 5718 5711 5704 5698 5690 5685 5681 5675 5671 5665 5658 5654
5715 5711 5738 5757 5752 5750 5754 5764 5773 5772 5773 5773 5776 5771 5769 5764 5764 5761 5759 5760 5760 5756 5754 5749 5746 5744 5735 5727 5728 5726 5723 5718 5712 5706 5700 5695 5687 5680 5679 5673 5670 5664 5658
5684 5703 5720 5716 5719 5727 5732 5745 5752 5762 5763 5765 5764 5762 5760 5757 5752 5752 5747 5747 5746 5745 5749 5749 5748 5740 5733 5726 5724 5723 5722 5717 5711 5707 5700 5696 5693 5683 5681 5678 5673 5668 5663
5670 5690 5696 5697 5699 5705 5715 5724 5732 5739 5745 5756 5757 5755 5753 5750 5745 5744 5742 5740 5738 5736 5739 5740 5741 5738 5731 5726 5721 5719 5717 5712 5705 5702 5701 5697 5691 5685 5681 5679 5674 5672 5664